{"data":{"norad_id":62974,"intl_designator":"2025-030D","name":"HULIANWANG DIGUI-14","alt_names":[],"object_type":"PAYLOAD","status":"ACTIVE","operator":null,"country":"PRC","launch_date":"2025-02-11","launch_site_code":"WSC","launch_vehicle":null,"mission":null,"orbit_class":"UNKNOWN","rcs_meters":null,"size_class":null,"mass_kg":null,"dimensions":null,"purposes":[],"wikipedia_slug":null,"has_3d_model":false,"image_url":null,"decayed_at":null,"tle_current":{"epoch":"2026-09-22T22:26:43.279296Z","epoch_age_seconds":105172,"freshness":"FRESH","line1":"1 62974U 25030D   26265.93522314 -.00000098  00000+0  56000-4 0  9990","line2":"2 62974  50.0021 245.0410 0000442  37.2576 322.8327 13.29327566 78864","mean_motion":13.29327566,"eccentricity":4.42e-5,"inclination_deg":50.0021,"raan_deg":245.041,"arg_perigee_deg":37.2576,"mean_anomaly_deg":322.8327,"bstar":5.6e-5,"rev_number":7886,"period_min":108.3254448964,"perigee_km":1148.9679473589,"apogee_km":1149.6333728481,"semimajor_km":7527.4376601035,"source":"CELESTRAK","updated_at":"2026-09-23T09:00:21.735874Z"}}}